When you browse on this site, cookies collect data to enhance your experience and personalize the content and advertising you see.
Visit our Privacy Policy to learn more. By continuing to use the site, you agree to this use of cookies and data.
  • In Austria
  • List of Countries
  • For 7 days
  • Water Temperature
  • Weather Map
  • News
  • Weather Widgets
  • user-avatar
    Login

    Hourly Weather Miyadzaki

    Today, 5 June, Friday

    Time Temperature Precipitation Wind Pressure Humidity
    00:00 +23°C° 0.1 mm 1 mps 747 mmHg 96%
    01:00 +22°C° 0 mm 1 mps 746 mmHg 97%
    02:00 +22°C° 0 mm 1 mps 746 mmHg 97%
    03:00 +22°C° 0 mm 1 mps 746 mmHg 97%
    04:00 +22°C° 0 mm 1 mps 746 mmHg 97%
    05:00 +22°C° 0 mm 1 mps 747 mmHg 97%
    06:00 +22°C° 0 mm 1 mps 747 mmHg 97%
    07:00 +24°C° 0 mm 1 mps 747 mmHg 89%
    08:00 +26°C° 0 mm 1 mps 748 mmHg 81%
    09:00 +28°C° 0 mm 1 mps 748 mmHg 71%
    10:00 +29°C° 0 mm 2 mps 748 mmHg 65%
    11:00 +31°C° 0 mm 2 mps 748 mmHg 59%
    12:00 +32°C° 0 mm 2 mps 748 mmHg 54%
    13:00 +31°C° 0 mm 2 mps 747 mmHg 55%
    14:00 +31°C° 0 mm 2 mps 747 mmHg 56%
    15:00 +31°C° 0 mm 2 mps 747 mmHg 58%
    16:00 +29°C° 0 mm 1 mps 747 mmHg 66%
    17:00 +28°C° 0 mm 1 mps 747 mmHg 74%
    18:00 +27°C° 0 mm 1 mps 748 mmHg 82%
    19:00 +26°C° 0 mm 1 mps 748 mmHg 83%
    20:00 +25°C° 0 mm 1 mps 747 mmHg 85%
    21:00 +24°C° 0 mm 2 mps 747 mmHg 87%
    22:00 +24°C° 0.2 mm 2 mps 748 mmHg 89%
    23:00 +24°C° 0.2 mm 2 mps 748 mmHg 91%

    Tomorrow, 6 June, Saturday

    Time Temperature Precipitation Wind Pressure Humidity
    00:00 +23°C° 0.2 mm 2 mps 748 mmHg 94%
    01:00 +23°C° 0 mm 2 mps 748 mmHg 88%
    02:00 +23°C° 0 mm 1 mps 747 mmHg 83%
    03:00 +23°C° 0 mm 1 mps 746 mmHg 78%
    04:00 +22°C° 0.3 mm 1 mps 747 mmHg 80%
    05:00 +22°C° 0.3 mm 1 mps 747 mmHg 82%
    06:00 +21°C° 0.3 mm 1 mps 747 mmHg 85%
    07:00 +20°C° 2.5 mm 2 mps 747 mmHg 88%
    08:00 +19°C° 2.5 mm 2 mps 747 mmHg 92%
    09:00 +19°C° 2.5 mm 3 mps 747 mmHg 95%
    10:00 +19°C° 6.4 mm 3 mps 747 mmHg 95%
    11:00 +19°C° 6.4 mm 4 mps 747 mmHg 96%
    12:00 +19°C° 6.4 mm 5 mps 747 mmHg 96%
    13:00 +19°C° 3.8 mm 5 mps 747 mmHg 96%
    14:00 +19°C° 3.8 mm 5 mps 747 mmHg 95%
    15:00 +19°C° 3.8 mm 5 mps 747 mmHg 95%
    16:00 +19°C° 1.3 mm 4 mps 747 mmHg 95%
    17:00 +19°C° 1.3 mm 4 mps 747 mmHg 95%
    18:00 +19°C° 1.3 mm 4 mps 747 mmHg 96%
    19:00 +19°C° 0.5 mm 4 mps 747 mmHg 96%
    20:00 +19°C° 0.5 mm 3 mps 748 mmHg 96%
    21:00 +19°C° 0.5 mm 2 mps 748 mmHg 97%
    22:00 +19°C° 0.2 mm 2 mps 748 mmHg 96%
    23:00 +19°C° 0.2 mm 2 mps 748 mmHg 96%

    Day after tomorrow, 7 June, Sunday

    Time Temperature Precipitation Wind Pressure Humidity
    00:00 +19°C° 0.2 mm 2 mps 748 mmHg 96%
    01:00 +19°C° 0 mm 2 mps 748 mmHg 95%
    02:00 +20°C° 0 mm 1 mps 748 mmHg 94%
    03:00 +19°C° 0 mm 1 mps 748 mmHg 93%
    04:00 +19°C° 0 mm 1 mps 748 mmHg 92%
    05:00 +19°C° 0 mm 1 mps 748 mmHg 92%
    06:00 +19°C° 0 mm 1 mps 748 mmHg 91%
    07:00 +22°C° 0 mm 1 mps 748 mmHg 83%
    08:00 +24°C° 0 mm 1 mps 749 mmHg 75%
    09:00 +26°C° 0 mm 2 mps 749 mmHg 67%
    10:00 +27°C° 0 mm 2 mps 749 mmHg 63%
    11:00 +28°C° 0 mm 2 mps 749 mmHg 59%
    12:00 +29°C° 0 mm 3 mps 749 mmHg 55%
    13:00 +28°C° 0 mm 3 mps 749 mmHg 57%
    14:00 +28°C° 0 mm 3 mps 749 mmHg 59%
    15:00 +28°C° 0 mm 3 mps 748 mmHg 61%
    16:00 +27°C° 0 mm 3 mps 749 mmHg 66%
    17:00 +26°C° 0 mm 2 mps 749 mmHg 71%
    18:00 +25°C° 0 mm 2 mps 749 mmHg 75%
    19:00 +24°C° 0 mm 1 mps 749 mmHg 81%
    20:00 +22°C° 0 mm 1 mps 749 mmHg 87%
    21:00 +19°C° 0 mm 0 mps 750 mmHg 93%
    22:00 +19°C° 0 mm 0 mps 750 mmHg 93%
    23:00 +20°C° 0 mm 1 mps 750 mmHg 93%

    8 June, Monday

    Time Temperature Precipitation Wind Pressure Humidity
    00:00 +20°C° 0 mm 1 mps 751 mmHg 93%
    01:00 +20°C° 0 mm 1 mps 751 mmHg 93%
    02:00 +20°C° 0 mm 1 mps 750 mmHg 92%
    03:00 +20°C° 0 mm 1 mps 750 mmHg 92%
    04:00 +20°C° 0 mm 1 mps 751 mmHg 91%
    05:00 +20°C° 0 mm 1 mps 751 mmHg 90%
    06:00 +20°C° 0 mm 1 mps 752 mmHg 89%
    07:00 +21°C° 0 mm 2 mps 752 mmHg 81%
    08:00 +25°C° 0 mm 2 mps 752 mmHg 72%
    09:00 +27°C° 0 mm 2 mps 753 mmHg 64%
    10:00 +27°C° 0 mm 3 mps 753 mmHg 62%
    11:00 +28°C° 0 mm 3 mps 753 mmHg 60%
    12:00 +29°C° 0 mm 4 mps 753 mmHg 59%
    13:00 +28°C° 0 mm 4 mps 753 mmHg 60%
    14:00 +28°C° 0 mm 4 mps 752 mmHg 60%
    15:00 +28°C° 0 mm 4 mps 752 mmHg 61%
    16:00 +27°C° 0 mm 3 mps 752 mmHg 67%
    17:00 +26°C° 0 mm 3 mps 752 mmHg 72%
    18:00 +25°C° 0 mm 2 mps 752 mmHg 78%
    19:00 +24°C° 0 mm 2 mps 753 mmHg 84%
    20:00 +21°C° 0 mm 2 mps 753 mmHg 90%
    21:00 +20°C° 0 mm 2 mps 754 mmHg 96%
    22:00 +20°C° 0 mm 2 mps 754 mmHg 95%
    23:00 +21°C° 0 mm 2 mps 754 mmHg 95%

    9 June, Tuesday

    Time Temperature Precipitation Wind Pressure Humidity
    00:00 +21°C° 0 mm 2 mps 754 mmHg 95%
    01:00 +21°C° 0 mm 2 mps 754 mmHg 94%
    02:00 +21°C° 0 mm 2 mps 754 mmHg 93%
    03:00 +21°C° 0 mm 2 mps 754 mmHg 92%
    04:00 +21°C° 0 mm 2 mps 754 mmHg 93%
    05:00 +21°C° 0 mm 3 mps 754 mmHg 93%
    06:00 +21°C° 0 mm 3 mps 754 mmHg 93%
    07:00 +24°C° 0 mm 3 mps 754 mmHg 87%
    08:00 +25°C° 0 mm 4 mps 755 mmHg 82%
    09:00 +26°C° 0 mm 4 mps 755 mmHg 76%
    10:00 +26°C° 0 mm 4 mps 755 mmHg 76%
    11:00 +26°C° 0 mm 4 mps 755 mmHg 75%
    12:00 +26°C° 0 mm 4 mps 755 mmHg 75%
    13:00 +26°C° 0 mm 3 mps 755 mmHg 78%
    14:00 +25°C° 0 mm 3 mps 754 mmHg 82%
    15:00 +25°C° 0 mm 3 mps 754 mmHg 85%
    16:00 +25°C° 0 mm 3 mps 754 mmHg 87%
    17:00 +25°C° 0 mm 3 mps 754 mmHg 89%
    18:00 +24°C° 0 mm 2 mps 754 mmHg 91%
    19:00 +24°C° 0.1 mm 2 mps 754 mmHg 92%
    20:00 +24°C° 0.1 mm 2 mps 755 mmHg 94%
    21:00 +24°C° 0.1 mm 2 mps 755 mmHg 96%
    22:00 +24°C° 0.2 mm 2 mps 755 mmHg 97%
    23:00 +24°C° 0.2 mm 2 mps 755 mmHg 97%

    10 June, Wednesday

    Time Temperature Precipitation Wind Pressure Humidity
    00:00 +24°C° 0.2 mm 2 mps 755 mmHg 97%
    01:00 +24°C° 0.4 mm 2 mps 755 mmHg 97%
    02:00 +23°C° 0.4 mm 2 mps 755 mmHg 97%
    03:00 +23°C° 0.4 mm 1 mps 754 mmHg 97%
    04:00 +23°C° 0.2 mm 1 mps 754 mmHg 97%
    05:00 +23°C° 0.2 mm 1 mps 754 mmHg 96%
    06:00 +23°C° 0.2 mm 1 mps 754 mmHg 95%
    07:00 +25°C° 0.1 mm 1 mps 755 mmHg 90%
    08:00 +26°C° 0.1 mm 1 mps 755 mmHg 85%
    09:00 +27°C° 0.1 mm 1 mps 755 mmHg 80%
    10:00 +26°C° 0.1 mm 2 mps 755 mmHg 80%
    11:00 +26°C° 0.1 mm 3 mps 755 mmHg 79%
    12:00 +26°C° 0.1 mm 3 mps 754 mmHg 78%
    13:00 +26°C° 0.1 mm 3 mps 754 mmHg 81%
    14:00 +25°C° 0.1 mm 3 mps 754 mmHg 83%
    15:00 +25°C° 0.1 mm 3 mps 753 mmHg 85%
    16:00 +25°C° 0.1 mm 2 mps 753 mmHg 88%
    17:00 +24°C° 0.1 mm 2 mps 753 mmHg 90%
    18:00 +24°C° 0.1 mm 1 mps 753 mmHg 93%
    19:00 +24°C° 0.1 mm 1 mps 753 mmHg 94%
    20:00 +23°C° 0.1 mm 1 mps 753 mmHg 95%
    21:00 +23°C° 0.1 mm 1 mps 753 mmHg 96%
    22:00 +23°C° 0 mm 1 mps 753 mmHg 96%
    23:00 +21°C° 0 mm 0 mps 753 mmHg 96%
    Show more